Time,TemperatureF,DewpointF,PressureIn,WindDirection,WindDirectionDegrees,WindSpeedMPH,WindSpeedGustMPH,Humidity,HourlyPrecipIn,Conditions,Clouds,dailyrainin,SolarRadiationWatts/m^2,SoftwareType,DateUTC
2013-12-15 00:01:00,31.0,31.0,29.92,NNE,22,5.6,9.5,100,0.00,,,0.00,0,,2013-12-15 05:01:00,
2013-12-15 00:11:00,31.0,31.0,29.91,NNE,22,5.2,8.2,100,0.24,,,0.04,0,,2013-12-15 05:11:00,
2013-12-15 00:21:00,32.0,32.0,29.90,NNE,22,4.2,6.8,100,0.18,,,0.07,0,,2013-12-15 05:21:00,
2013-12-15 00:31:00,32.0,32.0,29.89,NNE,22,4.2,6.0,100,0.18,,,0.10,0,,2013-12-15 05:31:00,
2013-12-15 00:41:00,31.0,31.0,29.89,NNE,22,4.7,7.8,100,0.06,,,0.11,0,,2013-12-15 05:41:00,
2013-12-15 00:51:00,31.0,31.0,29.88,NNE,22,4.8,8.0,100,0.06,,,0.12,0,,2013-12-15 05:51:00,
2013-12-15 01:01:00,31.0,31.0,29.86,NNE,22,4.6,7.5,100,0.00,,,0.12,0,,2013-12-15 06:01:00,
2013-12-15 01:11:00,31.0,31.0,29.86,NNE,22,4.2,9.0,100,0.06,,,0.13,0,,2013-12-15 06:11:00,
2013-12-15 01:21:00,31.0,31.0,29.87,NNE,22,4.2,7.5,100,0.00,,,0.13,0,,2013-12-15 06:21:00,
2013-12-15 01:31:00,30.0,30.0,29.85,NNE,22,5.0,8.0,100,0.06,,,0.14,0,,2013-12-15 06:31:00,
2013-12-15 01:41:00,31.0,31.0,29.85,NNE,22,4.9,8.5,100,0.00,,,0.14,0,,2013-12-15 06:41:00,
2013-12-15 01:51:00,31.0,31.0,29.84,NNE,22,4.7,6.5,100,0.00,,,0.14,0,,2013-12-15 06:51:00,
2013-12-15 02:01:00,31.0,31.0,29.83,NNE,22,4.9,7.2,100,0.00,,,0.14,0,,2013-12-15 07:01:00,
2013-12-15 02:11:00,31.0,31.0,29.83,NNE,22,4.6,6.5,100,0.00,,,0.14,0,,2013-12-15 07:11:00,
2013-12-15 02:21:00,31.0,31.0,29.82,NNE,22,4.1,6.0,100,0.00,,,0.14,0,,2013-12-15 07:21:00,
2013-12-15 02:31:00,31.0,31.0,29.84,NNE,22,3.2,5.8,100,0.00,,,0.14,0,,2013-12-15 07:31:00,
2013-12-15 02:41:00,31.0,31.0,29.83,NNE,22,4.2,8.0,100,0.00,,,0.14,0,,2013-12-15 07:41:00,
2013-12-15 02:51:00,30.0,30.0,29.81,NNE,22,4.3,6.2,100,0.00,,,0.14,0,,2013-12-15 07:51:00,
2013-12-15 03:01:00,30.0,30.0,29.80,NNE,22,3.4,6.0,100,0.00,,,0.14,0,,2013-12-15 08:01:00,
2013-12-15 03:11:00,30.0,30.0,29.80,NNE,22,3.2,5.8,100,0.00,,,0.14,0,,2013-12-15 08:11:00,
2013-12-15 03:21:00,30.0,30.0,29.80,NNE,22,2.9,5.5,100,0.00,,,0.14,0,,2013-12-15 08:21:00,
2013-12-15 03:31:00,30.0,30.0,29.81,NNE,22,2.6,4.2,100,0.00,,,0.14,0,,2013-12-15 08:31:00,
2013-12-15 03:41:00,29.0,29.0,29.83,NNE,22,2.8,5.5,100,0.00,,,0.14,0,,2013-12-15 08:41:00,
2013-12-15 03:51:00,29.0,29.0,29.82,NNE,22,3.3,6.0,100,0.00,,,0.14,0,,2013-12-15 08:51:00,
2013-12-15 04:01:00,29.0,29.0,29.81,NNE,22,3.6,6.0,100,0.00,,,0.14,0,,2013-12-15 09:01:00,
2013-12-15 04:11:00,29.0,29.0,29.81,NNE,22,2.5,5.2,100,0.00,,,0.14,0,,2013-12-15 09:11:00,
2013-12-15 04:21:00,29.0,29.0,29.82,NNE,22,2.6,5.8,100,0.00,,,0.14,0,,2013-12-15 09:21:00,
2013-12-15 04:31:00,29.0,29.0,29.83,NNE,22,2.8,6.0,100,0.00,,,0.14,0,,2013-12-15 09:31:00,
2013-12-15 04:41:00,29.0,29.0,29.82,NNE,22,2.9,6.0,100,0.06,,,0.15,0,,2013-12-15 09:41:00,
2013-12-15 04:51:00,29.0,29.0,29.80,NNE,22,3.7,6.0,100,0.00,,,0.15,0,,2013-12-15 09:51:00,
2013-12-15 05:01:00,29.0,29.0,29.80,NNE,22,3.2,6.0,100,0.00,,,0.15,0,,2013-12-15 10:01:00,
2013-12-15 05:11:00,29.0,29.0,29.80,NNE,22,2.2,5.5,100,0.00,,,0.15,0,,2013-12-15 10:11:00,
2013-12-15 05:21:00,29.0,29.0,29.82,NNE,22,1.1,3.0,100,0.00,,,0.15,0,,2013-12-15 10:21:00,
2013-12-15 05:31:00,29.0,29.0,29.83,NNE,22,1.3,3.0,100,0.00,,,0.15,0,,2013-12-15 10:31:00,
2013-12-15 05:41:00,29.0,29.0,29.83,NNE,22,0.9,3.0,100,0.00,,,0.15,0,,2013-12-15 10:41:00,
2013-12-15 05:51:00,29.0,29.0,29.84,NNE,22,1.3,4.8,100,0.06,,,0.16,0,,2013-12-15 10:51:00,
2013-12-15 06:01:00,29.0,29.0,29.83,NNE,22,1.5,3.0,100,0.00,,,0.16,0,,2013-12-15 11:01:00,
2013-12-15 06:11:00,29.0,29.0,29.86,NNE,22,1.6,4.2,100,0.00,,,0.16,0,,2013-12-15 11:11:00,
2013-12-15 06:21:00,29.0,29.0,29.85,NNE,22,1.1,4.2,100,0.00,,,0.16,0,,2013-12-15 11:21:00,
2013-12-15 06:31:00,29.0,29.0,29.84,NNE,22,1.5,5.0,100,0.00,,,0.16,0,,2013-12-15 11:31:00,
2013-12-15 06:41:00,30.0,30.0,29.84,NNE,22,1.1,4.0,100,0.00,,,0.16,0,,2013-12-15 11:41:00,
2013-12-15 06:51:00,30.0,30.0,29.85,NNE,22,1.1,3.0,100,0.00,,,0.16,0,,2013-12-15 11:51:00,
2013-12-15 07:01:00,30.0,30.0,29.86,NNE,22,1.6,3.5,100,0.00,,,0.16,0,,2013-12-15 12:01:00,
2013-12-15 07:11:00,30.0,30.0,29.85,NNE,22,0.6,3.0,100,0.00,,,0.16,0,,2013-12-15 12:11:00,
2013-12-15 07:21:00,30.0,30.0,29.85,NNE,22,1.2,3.0,100,0.00,,,0.16,0,,2013-12-15 12:21:00,
2013-12-15 07:31:00,30.0,30.0,29.84,NNE,22,0.7,2.8,100,0.00,,,0.16,0,,2013-12-15 12:31:00,
2013-12-15 07:41:00,30.0,30.0,29.85,NNE,22,2.0,3.8,100,0.00,,,0.16,10,,2013-12-15 12:41:00,
2013-12-15 07:51:00,30.0,30.0,29.85,NNE,22,1.4,3.2,100,0.00,,,0.16,50,,2013-12-15 12:51:00,
2013-12-15 08:01:00,30.0,30.0,29.86,NNE,22,0.7,2.8,100,0.00,,,0.16,40,,2013-12-15 13:01:00,
2013-12-15 08:11:00,31.0,31.0,29.86,NNE,22,1.2,4.0,100,0.00,,,0.16,70,,2013-12-15 13:11:00,
2013-12-15 08:21:00,31.0,31.0,29.86,NNE,22,0.8,2.8,100,0.00,,,0.16,70,,2013-12-15 13:21:00,
2013-12-15 08:31:00,31.0,31.0,29.86,NNE,22,0.8,3.8,100,0.00,,,0.16,80,,2013-12-15 13:31:00,
2013-12-15 08:41:00,31.0,31.0,29.86,NNE,22,1.0,3.0,100,0.00,,,0.16,130,,2013-12-15 13:41:00,
2013-12-15 08:51:00,31.0,31.0,29.86,NNE,22,1.1,3.0,100,0.00,,,0.16,300,,2013-12-15 13:51:00,
2013-12-15 09:01:00,32.0,32.0,29.85,NNE,22,1.9,9.0,100,0.00,,,0.16,280,,2013-12-15 14:01:00,
2013-12-15 09:11:00,32.0,32.0,29.86,NNE,22,1.8,5.0,100,0.00,,,0.16,210,,2013-12-15 14:11:00,
2013-12-15 09:21:00,33.0,33.0,29.86,NNE,22,1.8,4.0,100,0.00,,,0.16,190,,2013-12-15 14:21:00,
2013-12-15 09:31:00,33.0,33.0,29.87,NNE,22,2.1,4.0,100,0.00,,,0.16,130,,2013-12-15 14:31:00,
2013-12-15 09:41:00,33.0,33.0,29.87,NNE,22,3.2,5.2,100,0.00,,,0.16,290,,2013-12-15 14:41:00,
2013-12-15 09:51:00,34.0,34.0,29.88,NNE,22,3.1,6.0,100,0.06,,,0.17,270,,2013-12-15 14:51:00,
2013-12-15 10:01:00,35.0,35.0,29.88,NNE,22,3.4,6.0,100,0.06,,,0.18,330,,2013-12-15 15:01:00,
2013-12-15 10:11:00,35.0,35.0,29.89,NNE,22,3.8,7.0,100,0.00,,,0.18,340,,2013-12-15 15:11:00,
2013-12-15 10:21:00,35.0,35.0,29.89,NNE,22,4.5,9.0,100,0.00,,,0.18,350,,2013-12-15 15:21:00,
2013-12-15 10:31:00,35.0,35.0,29.89,NNE,22,5.7,9.0,100,0.12,,,0.20,350,,2013-12-15 15:31:00,
2013-12-15 10:41:00,36.0,36.0,29.89,SSE,161,6.3,10.0,100,0.00,,,0.20,350,,2013-12-15 15:41:00,
2013-12-15 10:51:00,36.0,36.0,29.89,WSW,238,7.4,14.0,100,0.06,,,0.21,350,,2013-12-15 15:51:00,
2013-12-15 11:01:00,36.0,36.0,29.89,SW,215,8.3,14.5,100,0.06,,,0.22,350,,2013-12-15 16:01:00,
2013-12-15 11:11:00,36.0,36.0,29.90,WSW,248,8.1,16.8,100,0.00,,,0.22,360,,2013-12-15 16:11:00,
2013-12-15 11:21:00,37.0,37.0,29.90,WSW,250,7.5,13.8,100,0.06,,,0.23,400,,2013-12-15 16:21:00,
2013-12-15 11:31:00,37.0,37.0,29.89,West,274,7.8,15.2,100,0.06,,,0.24,480,,2013-12-15 16:31:00,
2013-12-15 11:41:00,37.0,37.0,29.89,West,277,7.2,16.0,100,0.12,,,0.26,360,,2013-12-15 16:41:00,
2013-12-15 11:51:00,38.0,38.0,29.90,West,280,7.3,11.8,99,0.12,,,0.28,380,,2013-12-15 16:51:00,
2013-12-15 12:01:00,38.0,36.0,29.89,West,270,7.6,14.5,98,0.12,,,0.30,410,,2013-12-15 17:01:00,
2013-12-15 12:11:00,38.0,37.0,29.90,West,259,8.2,15.0,96,0.06,,,0.31,410,,2013-12-15 17:11:00,
2013-12-15 12:21:00,38.0,37.0,29.90,West,273,8.1,15.8,95,0.12,,,0.33,410,,2013-12-15 17:21:00,
2013-12-15 12:31:00,38.0,36.0,29.90,WSW,241,7.2,17.5,94,0.12,,,0.35,290,,2013-12-15 17:31:00,
2013-12-15 12:41:00,38.0,36.0,29.91,WSW,256,7.9,15.0,93,0.00,,,0.35,250,,2013-12-15 17:41:00,
2013-12-15 12:51:00,38.0,36.0,29.91,West,271,6.8,13.8,91,0.06,,,0.36,170,,2013-12-15 17:51:00,
2013-12-15 13:01:00,38.0,35.0,29.91,WSW,253,6.2,11.0,91,0.00,,,0.36,200,,2013-12-15 18:01:00,
2013-12-15 13:11:00,38.0,35.0,29.91,West,273,7.0,12.8,91,0.06,,,0.37,290,,2013-12-15 18:11:00,
2013-12-15 13:21:00,38.0,35.0,29.91,West,268,7.3,13.0,90,0.12,,,0.39,210,,2013-12-15 18:21:00,
2013-12-15 13:31:00,38.0,35.0,29.92,West,262,7.2,12.5,89,0.06,,,0.40,140,,2013-12-15 18:31:00,
2013-12-15 13:41:00,38.0,35.0,29.92,WSW,239,6.6,15.0,88,0.12,,,0.42,90,,2013-12-15 18:41:00,
2013-12-15 13:51:00,39.0,36.0,29.92,West,271,5.9,12.5,88,0.06,,,0.43,170,,2013-12-15 18:51:00,
2013-12-15 14:01:00,39.0,35.0,29.93,West,279,7.0,13.0,87,0.06,,,0.44,120,,2013-12-15 19:01:00,
2013-12-15 14:11:00,39.0,35.0,29.93,West,279,7.0,11.8,86,0.12,,,0.46,70,,2013-12-15 19:11:00,
2013-12-15 14:21:00,39.0,35.0,29.94,West,267,6.4,12.0,87,0.06,,,0.47,60,,2013-12-15 19:21:00,
2013-12-15 14:31:00,38.0,34.0,29.95,West,271,6.1,13.5,87,0.06,,,0.48,60,,2013-12-15 19:31:00,
2013-12-15 14:41:00,38.0,34.0,29.95,West,277,6.6,11.8,86,0.06,,,0.49,60,,2013-12-15 19:41:00,
2013-12-15 14:51:00,38.0,33.0,29.95,West,261,7.8,16.2,82,0.06,,,0.50,60,,2013-12-15 19:51:00,
2013-12-15 15:01:00,38.0,32.0,29.96,West,278,7.1,13.5,80,0.00,,,0.50,60,,2013-12-15 20:01:00,
2013-12-15 15:11:00,39.0,33.0,29.97,SW,232,5.9,14.2,78,0.06,,,0.51,40,,2013-12-15 20:11:00,
2013-12-15 15:21:00,38.0,30.0,29.97,WSW,238,5.4,11.0,76,0.00,,,0.51,50,,2013-12-15 20:21:00,
2013-12-15 15:31:00,39.0,31.0,29.97,WSW,258,6.8,12.0,75,0.06,,,0.52,60,,2013-12-15 20:31:00,
2013-12-15 15:41:00,38.0,29.0,29.98,WSW,252,7.5,15.8,74,0.00,,,0.52,30,,2013-12-15 20:41:00,
2013-12-15 15:51:00,39.0,30.0,29.98,West,273,8.3,13.5,73,0.06,,,0.53,20,,2013-12-15 20:51:00,
2013-12-15 16:01:00,38.0,30.0,29.99,West,272,5.2,11.5,75,0.00,,,0.53,10,,2013-12-15 21:01:00,
2013-12-15 16:11:00,38.0,30.0,30.00,West,279,3.2,8.0,77,0.06,,,0.54,10,,2013-12-15 21:11:00,
2013-12-15 16:21:00,38.0,30.0,30.00,West,271,6.3,12.0,77,0.00,,,0.54,10,,2013-12-15 21:21:00,
2013-12-15 16:31:00,38.0,30.0,30.00,WSW,256,5.9,13.0,77,0.00,,,0.54,0,,2013-12-15 21:31:00,
2013-12-15 16:41:00,38.0,30.0,30.01,West,269,6.2,9.8,77,0.06,,,0.55,0,,2013-12-15 21:41:00,
2013-12-15 16:51:00,38.0,30.0,30.01,West,264,5.5,15.0,77,0.00,,,0.55,0,,2013-12-15 21:51:00,
2013-12-15 17:01:00,37.0,29.0,30.01,West,271,4.8,10.5,77,0.00,,,0.55,0,,2013-12-15 22:01:00,
2013-12-15 17:11:00,37.0,30.0,30.01,WSW,257,4.8,10.2,78,0.00,,,0.55,0,,2013-12-15 22:11:00,
2013-12-15 17:21:00,37.0,29.0,30.02,WSW,245,6.6,17.5,75,0.00,,,0.55,0,,2013-12-15 22:21:00,
2013-12-15 17:31:00,37.0,28.0,30.02,WSW,258,7.1,15.8,73,0.00,,,0.55,0,,2013-12-15 22:31:00,
2013-12-15 17:41:00,37.0,28.0,30.03,West,273,7.6,16.0,72,0.06,,,0.56,0,,2013-12-15 22:41:00,
2013-12-15 17:51:00,37.0,27.0,30.04,West,281,8.1,17.5,70,0.00,,,0.56,0,,2013-12-15 22:51:00,
2013-12-15 18:01:00,36.0,26.0,30.04,West,273,8.0,14.2,69,0.00,,,0.56,0,,2013-12-15 23:01:00,
2013-12-15 18:11:00,36.0,25.0,30.05,West,263,9.5,14.8,67,0.00,,,0.56,0,,2013-12-15 23:11:00,
2013-12-15 18:21:00,36.0,25.0,30.05,WSW,248,6.7,13.2,68,0.00,,,0.56,0,,2013-12-15 23:21:00,
2013-12-15 18:31:00,36.0,25.0,30.05,WSW,249,5.7,11.2,68,0.00,,,0.56,0,,2013-12-15 23:31:00,
2013-12-15 18:41:00,36.0,26.0,30.05,WSW,255,5.4,11.0,69,0.00,,,0.56,0,,2013-12-15 23:41:00,
2013-12-15 18:51:00,36.0,26.0,30.06,WSW,246,4.8,9.2,69,0.00,,,0.56,0,,2013-12-15 23:51:00,
2013-12-15 19:01:00,35.0,25.0,30.07,West,260,5.0,9.8,70,0.00,,,0.56,0,,2013-12-16 00:01:00,
2013-12-15 19:11:00,35.0,25.0,30.07,West,275,5.6,14.8,71,0.00,,,0.56,0,,2013-12-16 00:11:00,
2013-12-15 19:21:00,35.0,26.0,30.07,West,281,8.2,15.5,71,0.00,,,0.56,0,,2013-12-16 00:21:00,
2013-12-15 19:31:00,35.0,26.0,30.08,West,275,5.9,12.5,71,0.00,,,0.56,0,,2013-12-16 00:31:00,
2013-12-15 19:41:00,34.0,25.0,30.08,West,274,8.0,15.0,71,0.00,,,0.56,0,,2013-12-16 00:41:00,
2013-12-15 19:51:00,34.0,24.0,30.09,WNW,283,8.1,13.5,71,0.00,,,0.56,0,,2013-12-16 00:51:00,
2013-12-15 20:01:00,34.0,24.0,30.09,West,273,7.4,13.0,70,0.00,,,0.56,0,,2013-12-16 01:01:00,
2013-12-15 20:11:00,33.0,23.0,30.09,West,274,7.8,13.0,69,0.00,,,0.56,0,,2013-12-16 01:11:00,
2013-12-15 20:21:00,33.0,23.0,30.10,West,266,6.7,15.5,69,0.00,,,0.56,0,,2013-12-16 01:21:00,
2013-12-15 20:31:00,33.0,23.0,30.09,WNW,282,5.8,10.5,69,0.00,,,0.56,0,,2013-12-16 01:31:00,
2013-12-15 20:41:00,32.0,22.0,30.10,West,274,4.9,9.2,70,0.00,,,0.56,0,,2013-12-16 01:41:00,
2013-12-15 20:51:00,32.0,22.0,30.11,West,275,4.6,8.8,70,0.00,,,0.56,0,,2013-12-16 01:51:00,
2013-12-15 21:01:00,32.0,23.0,30.10,West,265,4.2,7.5,71,0.00,,,0.56,0,,2013-12-16 02:01:00,
2013-12-15 21:11:00,31.0,22.0,30.10,West,274,5.1,8.0,72,0.00,,,0.56,0,,2013-12-16 02:11:00,
2013-12-15 21:21:00,31.0,22.0,30.11,WNW,284,5.7,9.0,72,0.00,,,0.56,0,,2013-12-16 02:21:00,
2013-12-15 21:31:00,31.0,22.0,30.11,West,279,6.2,10.2,72,0.00,,,0.56,0,,2013-12-16 02:31:00,
2013-12-15 21:41:00,31.0,22.0,30.11,West,275,5.3,8.5,72,0.00,,,0.56,0,,2013-12-16 02:41:00,
2013-12-15 21:51:00,31.0,22.0,30.11,West,276,4.7,9.0,73,0.00,,,0.56,0,,2013-12-16 02:51:00,
2013-12-15 22:01:00,31.0,22.0,30.11,WSW,257,3.7,8.0,73,0.00,,,0.56,0,,2013-12-16 03:01:00,
2013-12-15 22:11:00,31.0,22.0,30.11,WSW,251,5.1,7.8,73,0.00,,,0.56,0,,2013-12-16 03:11:00,
2013-12-15 22:21:00,30.0,22.0,30.11,WSW,256,4.3,7.0,74,0.00,,,0.56,0,,2013-12-16 03:21:00,
2013-12-15 22:31:00,30.0,22.0,30.11,WSW,254,4.6,7.0,74,0.00,,,0.56,0,,2013-12-16 03:31:00,
2013-12-15 22:41:00,30.0,22.0,30.11,WSW,252,4.1,7.5,75,0.00,,,0.56,0,,2013-12-16 03:41:00,
2013-12-15 22:52:00,30.0,22.0,30.11,WSW,255,4.9,7.8,75,0.00,,,0.56,0,,2013-12-16 03:52:00,
2013-12-15 23:01:00,30.0,22.0,30.11,WSW,257,4.1,6.8,75,0.00,,,0.56,0,,2013-12-16 04:01:00,
2013-12-15 23:11:00,30.0,22.0,30.11,West,263,4.8,9.5,75,0.00,,,0.56,0,,2013-12-16 04:11:00,
2013-12-15 23:21:00,30.0,22.0,30.11,West,266,4.6,8.0,75,0.00,,,0.56,0,,2013-12-16 04:21:00,
2013-12-15 23:31:00,30.0,22.0,30.11,West,275,6.0,9.2,75,0.00,,,0.56,0,,2013-12-16 04:31:00,
2013-12-15 23:41:00,30.0,22.0,30.11,West,272,5.7,9.8,75,0.00,,,0.56,0,,2013-12-16 04:41:00,
2013-12-15 23:51:00,30.0,22.0,30.11,West,271,5.9,11.8,76,0.00,,,0.56,0,,2013-12-16 04:51:00,